Location: Moscow
(55.7500°N, 37.5830°E)
Time: 10:07:10
(UTC+03:00)

A-11 Canister half - Pass Details

Date: 02 December 2021
Orbit: 1516 x 1684 km, 47.2° (Epoch: 24 January)

Event Time Altitude Azimuth Distance (km) Brightness Sun altitude
Rises 15:14:57 0° 283° (WNW) 4,919 12.0 3.8°
Reaches altitude 10° 15:19:31 10° 266° (W) 3,942 11.9 3.3°
Maximum altitude 15:25:24 17° 230° (SW) 3,381 12.7 2.8°
Drops below altitude 10° 15:31:18 10° 194° (SSW) 3,938 12.3 2.2°
Sets 15:35:53 0° 176° (S) 4,910 12.3 1.8°
